STARLINK-3083, 49158

Orbit data source: Space-Track

STARLINK-3083, 49158 is a payload satellite owned by SpaceX/Seattle (US) in LEO that was launched on Tue, 14 Sep 2021 UTC via an FALCON 9 launch vehicle from the Air Force Western Test Range (AFWTR). Payload-class satellites include a variety of spacecraft equipped with specific instruments for various scientific and technological missions. These include communications satellites like Starlink; space stations such as the ISS; scientific satellites like the Hubble; Earth observation satellites from companies like Planet Labs, Umbra, and HawkEye 360; GPS; miniature CubeSats for education and research; and military/defense satellites.

Loading next visibility...
Identifier
49158, 2021-082AE
Orbit
LEO
Last TLE update
8 hours ago
Origin
Manufacturer
SpaceX/Seattle
Mission
Partially operational Commercial Communications
Bus & Motor
STARLINK, Unknown motor
Mass
297 kg wet, ~275 kg dry
Launch date (UTC)
2021-09-14 (4 years ago)
Launch vehicle
FALCON 9
Launch site
Air Force Western Test Range (AFWTR)
Object type
Payload
Rocket body
Debris
Shape & HBR
Box + 1 Pan, 8.86 m
Radar Cross Section
13.562 m², Large (>1 m²)

Expand to show TLE details & history

TLE from 8 hours ago
0 STARLINK-3083
1 49158U 21082AE  25183.94053901  .00010976  00000-0  30823-3 0  9992
2 49158  69.9805 135.1709 0006575 210.5623 149.5173 15.36730632211374
Epoch: 2025-07-02T22:34Z
TLE epoch observation values (Epoch: 2025-07-02T22:34:22.57Z)
Latitude
-0.00007°
Longitude
-124.6376°
Altitude
462.122 km
Speed
7.634 km/s
True Right ascension
09h 00m 41s
True Declination
0° 00' 00"
Sunlit
Object was in daylight at epoch
Visualization orbit readout
Latitude
-35.22998°
Longitude
-140.31635°
Altitude
470.249 km
Speed
7.629 km/s
Apparent Right ascension
07h 02m 28s
Apparent Declination
-38° 15' 14"
Sunlit
Object is in daylight
Visualization observer readout
Local Sidereal Time
17:58:51
Azimuth
272.585° WNW
Elevation
-77.559°
Doppler factor
1
Orbital elements
Apogee altitude
458.192 km
Perigee altitude
449.208 km
Semi-major axis
6,831.837 km
Eccentricity
0.00066
Inclination
69.9805°
RAAN
135.1709°
Arg. of periapsis
210.5623°
True anomaly
Unknown
Mean anomaly
149.5173°
Eccentric anomaly
Unknown
Mean motion
3.84359 °/min
Orbital period
93.66 mins
BSTAR
0.00030823
Loading maneuver chart data...
Loading SW <> Apogee altitude chart data...
Loading historical data...
Loading historical data...
Loading historical data...
Loading historical data...
Loading historical data...
Loading historical data...
Loading historical data...

STARLINK-3083 Visibility forecast

Observer location: undefined°, undefined°

Span
Click to sort rows by Start time (UTC) header in descending order
Start Az.
Max El. time (UTC)
Max El. Az.
Max El.
End time (UTC)
End Az.
4 mins2025-07-03 06:55:12.745Z19.693° NNE2025-07-03 06:57:12.745Z56.753° ENE15.198°2025-07-03 06:59:12.745Z92.754° ESE
4 mins2025-07-03 08:31:12.745Z300.736° NW2025-07-03 08:33:12.745Z244.919° WSW26.955°2025-07-03 08:35:12.745Z197.235° SSW
5 mins2025-07-03 22:09:12.745Z201.991° SSW2025-07-03 22:11:12.745Z194.135° SSW43.633°2025-07-03 22:14:12.745Z25.244° NE
|